Theta_e
315 317 319 317 313 310 307 299 289 305 308 297 297 290 290 292 292 295 294 293 292 291 291 287 284 285 286 287 284 281 281 279 275 277 279 280 279 278 276 271 269 272 271 270
316 317 318 316 313 309 304 295 293 307 306 290 289 292 292 294 293 293 293 291 292 292 287 284 286 286 283 284 282 280 281 277 274 272 276 278 276 276 276 276 274 269 267 271
316 316 317 315 312 310 305 295 288 298 300 299 293 294 291 291 296 294 294 291 289 284 283 284 282 282 281 283 282 283 282 277 276 274 276 276 273 275 276 275 270 270 271 273
317 316 317 315 312 310 307 297 292 294 290 291 294 294 295 292 291 293 292 286 286 284 281 281 281 283 280 282 282 283 280 274 276 276 277 276 275 274 275 273 273 269 272 272
317 317 316 315 312 310 305 300 292 294 293 298 292 292 290 289 292 289 286 285 284 284 284 284 280 282 280 280 280 279 280 274 274 272 275 275 273 274 275 275 274 274 274 273
317 317 317 315 312 309 299 299 296 295 299 294 292 294 293 293 293 291 292 287 284 282 286 288 285 286 286 283 279 277 276 274 271 272 272 271 269 273 274 274 275 274 270 274
317 316 316 315 312 310 308 299 297 292 294 297 295 295 297 294 293 291 288 288 286 285 286 285 284 282 281 281 280 281 276 274 273 269 268 265 274 277 276 274 275 276 276 277
317 316 316 315 312 309 311 307 300 296 296 299 299 293 291 291 291 289 285 285 288 287 284 278 275 274 275 277 278 278 279 275 271 268 266 271 273 274 274 272 272 277 276 277
316 316 316 315 313 310 312 312 306 301 296 297 298 289 289 286 284 281 281 283 286 285 281 278 271 269 273 270 272 278 278 278 273 266 265 265 272 275 278 276 268 277 278 277
316 316 316 315 314 312 308 303 302 295 292 291 292 286 286 287 284 280 280 280 280 284 279 274 272 273 276 270 269 270 272 272 269 269 267 270 276 277 278 267 271 279 279 278
316 315 315 315 314 312 310 304 299 298 287 285 286 287 284 284 284 279 280 280 279 279 276 275 274 273 274 273 274 272 271 269 268 270 267 264 278 276 272 277 280 280 278 276
315 315 315 314 314 312 310 291 296 295 288 284 285 286 291 291 290 283 283 283 280 281 278 277 278 273 275 274 269 277 270 274 270 272 272 278 279 279 281 281 279 278 275 274
314 315 315 315 314 313 305 291 292 289 284 283 284 284 288 293 291 292 282 283 285 283 285 280 278 273 276 271 272 274 276 278 274 273 276 277 279 280 281 279 278 275 273 271
313 314 314 314 309 304 299 290 292 290 285 280 282 290 287 292 291 290 289 287 286 285 284 280 277 275 280 275 276 275 277 277 276 276 278 279 280 281 282 277 274 272 271 269
313 313 311 306 302 299 294 292 294 293 289 281 281 286 289 291 289 288 288 287 285 283 280 279 277 279 278 278 277 275 278 276 274 274 279 279 280 280 278 275 273 271 267 266
312 309 305 302 300 296 291 284 290 295 292 283 278 285 285 288 288 286 286 285 285 284 281 280 281 283 280 273 273 279 280 281 282 279 282 282 279 278 275 273 270 268 266 265
304 302 301 300 298 295 289 286 289 296 294 283 278 278 283 287 287 286 285 286 285 284 282 281 280 280 281 276 271 278 280 281 282 283 279 277 276 275 272 270 268 265 265 265
301 300 299 298 297 295 290 294 297 295 287 285 276 273 278 285 281 280 286 282 284 283 282 281 279 279 280 274 278 280 282 280 279 279 279 277 274 270 268 268 266 262 264 263
302 301 299 294 291 285 289 297 297 293 288 279 276 272 272 283 280 281 281 283 278 282 279 278 278 275 273 277 279 280 281 279 279 277 275 272 272 270 267 266 264 264 263 261
302 298 286 283 285 297 296 291 284 284 284 281 275 278 274 281 278 277 277 278 276 273 276 279 276 275 278 280 281 281 280 280 275 269 268 266 267 269 267 265 265 264 261 259
293 285 285 288 297 290 285 281 280 281 278 280 276 275 275 280 275 274 278 274 275 270 272 273 270 267 275 281 281 282 280 279 277 279 279 275 274 270 268 265 262 261 258 255
288 287 289 290 285 283 279 277 279 278 275 275 274 277 279 279 282 276 276 273 273 269 269 270 267 270 276 279 279 280 279 278 276 274 272 270 269 269 267 262 259 255 253 251
288 285 282 280 280 275 273 272 274 274 274 276 278 276 277 278 281 276 276 271 269 267 267 267 269 275 277 277 277 273 271 270 265 263 263 262 258 257 257 254 253 252 250 249
282 280 275 276 274 276 276 274 273 274 276 276 279 274 276 278 276 276 271 270 267 265 262 264 271 275 276 275 272 267 265 264 263 261 259 258 256 254 253 253 251 250 250 248
280 280 274 275 278 272 271 272 274 275 280 280 275 276 277 275 274 275 268 265 266 266 266 270 276 279 275 275 269 266 262 261 260 258 257 255 253 253 251 250 250 250 249 249
281 279 276 277 273 270 272 273 273 280 281 280 278 275 273 272 274 270 268 266 265 269 270 274 275 275 274 273 267 264 262 260 257 258 257 255 253 252 251 249 250 249 250 250
278 275 278 279 278 276 273 276 277 283 279 276 275 271 271 275 271 270 270 267 273 274 271 271 271 271 268 261 259 258 257 257 256 255 255 254 253 251 250 249 249 250 250 250
Wind_Speed
26 25 20 20 21 18 8 3 3 4 4 5 3 8 7 6 6 3 7 4 9 12 9 6 8 10 6 8 9 7 5 4 5 4 8 8 8 8 7 4 6 9 8 16
26 23 21 22 25 23 6 4 2 2 3 8 8 5 7 7 9 10 12 12 11 7 10 6 10 4 2 8 8 8 8 4 2 3 2 3 7 8 6 6 5 15 7 9
27 25 22 26 29 26 5 4 4 3 4 4 10 14 12 13 10 13 9 5 6 5 8 4 5 8 6 6 4 3 4 5 10 11 8 3 6 11 13 14 8 9 19 26
29 28 25 30 32 29 7 4 7 7 8 10 17 16 8 16 12 12 11 6 16 12 7 7 8 6 7 6 7 7 5 7 8 13 15 12 16 19 17 21 20 14 17 20
30 30 29 30 33 29 9 8 5 3 4 6 20 20 19 28 16 15 11 14 15 12 20 15 12 14 10 8 8 9 6 3 1 5 13 14 18 18 20 17 19 23 23 29
33 33 33 34 37 27 5 3 0 4 12 11 13 22 31 27 18 11 17 20 12 14 17 7 1 1 4 9 12 12 9 5 3 7 2 5 13 22 21 11 10 15 16 19
34 34 35 37 41 39 10 5 6 6 20 18 25 22 20 26 24 30 6 6 11 5 17 14 8 8 8 7 7 10 10 7 3 4 0 9 3 7 1 12 12 14 16 17
35 35 37 39 44 47 15 9 9 9 19 22 32 20 15 2 4 6 6 3 5 15 10 5 5 2 1 7 6 8 6 6 4 5 5 10 9 6 6 5 8 14 11 14
35 37 39 41 45 48 24 16 10 8 9 19 6 9 14 9 8 5 4 4 11 8 6 4 7 8 6 7 7 5 10 10 7 3 5 7 1 7 6 1 9 12 8 13
35 35 36 38 41 45 22 6 13 4 7 3 9 8 11 7 6 5 7 8 6 2 4 4 5 6 7 11 12 10 7 6 15 10 7 9 12 9 4 2 0 7 7 9
37 36 34 32 34 41 27 8 11 8 2 3 0 6 8 6 7 8 10 7 3 5 8 6 6 6 9 6 10 10 10 10 7 9 7 14 11 8 9 2 7 8 6 6
35 34 32 31 32 37 34 4 4 5 5 2 4 1 1 0 8 10 13 3 11 8 6 6 5 4 5 7 7 10 9 9 9 13 10 4 14 6 8 4 4 3 3 5
35 34 32 32 32 31 26 8 8 7 5 2 3 5 7 6 9 7 8 3 6 7 3 5 4 5 6 7 7 9 10 6 5 6 11 15 10 13 3 5 5 2 2 4
36 34 33 29 30 35 21 10 8 6 4 3 4 8 7 10 11 9 5 7 5 6 3 3 4 3 7 6 3 9 4 10 10 9 14 8 13 13 10 8 5 3 2 3
36 31 29 37 35 34 15 8 5 5 6 5 4 5 4 11 12 11 8 10 9 6 5 3 4 3 4 2 3 7 7 9 8 7 10 9 6 8 10 10 8 5 3 3
31 33 38 37 38 35 10 4 4 5 6 5 4 3 5 8 11 12 11 9 4 3 4 2 3 3 5 5 5 8 17 14 11 12 6 6 5 9 10 9 10 7 5 5
33 37 36 34 33 10 5 6 10 19 5 5 5 4 3 9 7 4 4 3 2 4 5 5 4 4 6 3 6 10 13 15 14 15 5 5 8 6 11 9 9 7 4 4
31 34 33 31 22 13 4 5 30 12 6 4 5 3 2 6 6 4 3 4 3 3 4 4 4 4 4 7 13 18 15 10 9 10 11 1 10 11 10 9 9 6 6 4
28 29 31 15 2 3 3 26 19 4 3 6 4 9 7 6 3 5 3 2 3 2 4 5 6 5 9 9 17 17 15 12 9 5 7 8 7 10 11 11 9 7 6 5
26 15 5 4 5 24 25 6 3 3 2 2 3 5 6 7 3 3 5 1 4 4 4 5 5 7 8 15 20 13 8 13 11 6 4 5 6 13 14 13 8 7 7 5
3 4 3 4 26 4 3 6 6 4 5 6 4 4 10 3 6 5 1 4 4 4 4 6 4 5 13 25 20 15 11 14 16 15 10 12 9 11 14 12 11 9 8 4
8 8 6 5 3 4 6 6 6 6 8 6 9 7 6 4 5 5 4 3 3 5 4 4 6 7 17 9 14 13 12 14 15 10 10 9 8 9 11 12 10 7 6 5
4 3 6 5 4 7 11 12 5 7 6 6 9 10 5 3 3 5 5 7 5 7 3 7 6 9 9 10 9 5 5 8 10 7 8 11 10 9 7 10 6 8 6 4
4 7 8 7 6 6 5 5 7 5 8 15 15 7 5 4 5 5 6 4 6 6 5 9 6 17 12 8 4 6 9 9 10 11 12 12 12 9 9 9 9 8 7 5
4 5 8 6 3 4 3 5 6 2 15 16 7 4 4 4 6 5 7 5 7 10 8 7 9 10 7 9 7 8 9 10 10 10 11 11 12 11 9 7 8 8 7 6
2 3 4 5 5 2 2 4 6 8 12 7 4 5 5 5 6 7 9 11 10 7 7 5 4 6 7 6 6 6 9 11 11 11 11 12 12 12 11 9 7 7 7 7
1 1 2 3 3 3 4 4 7 15 15 8 5 7 7 7 5 8 7 9 6 4 3 3 3 4 4 4 7 8 10 11 12 11 11 11 11 12 11 10 8 8 7 6
Wind_Direction
223 221 203 182 168 151 145 149 223 148 177 186 208 223 202 182 188 192 242 232 237 245 228 229 228 232 220 164 164 186 172 178 218 264 314 257 233 195 179 194 218 237 290 277
210 217 210 180 169 162 139 197 184 163 239 218 221 236 245 231 179 197 196 225 208 185 196 235 216 190 120 163 174 171 177 198 225 186 166 168 203 188 190 226 248 236 244 257
210 207 203 179 179 181 143 133 193 173 210 254 240 235 232 235 210 245 217 217 134 147 201 237 192 176 176 185 188 156 181 204 233 258 308 130 200 202 212 204 221 260 232 273
207 206 197 183 182 184 165 157 221 183 201 226 230 230 249 226 220 217 183 215 218 195 205 191 233 185 169 196 195 180 217 234 242 259 273 263 262 259 243 231 236 246 272 279
208 203 198 188 182 180 218 197 165 207 261 238 204 209 225 232 225 181 209 232 191 190 219 192 194 182 178 193 179 172 194 228 274 268 262 259 258 258 251 237 241 248 262 273
211 205 199 188 181 171 194 158 68 148 226 203 211 214 233 236 219 214 239 205 174 200 215 211 23 88 216 167 161 181 176 183 169 276 84 316 269 241 239 223 214 235 250 263
213 209 200 191 185 186 193 173 132 179 246 223 231 246 233 230 223 227 138 155 178 144 105 83 80 67 65 150 162 171 167 157 167 273 153 247 11 145 89 243 239 245 264 293
215 210 206 197 192 192 204 180 185 187 240 232 243 228 224 221 200 195 165 146 116 139 105 109 121 147 19 216 199 175 153 151 213 238 213 322 279 225 182 209 254 247 266 297
220 217 212 203 198 197 207 215 201 204 229 237 224 180 184 179 168 131 116 71 142 156 142 141 181 179 176 187 159 192 192 203 206 170 233 255 336 157 136 241 278 142 313 309
226 222 218 215 205 199 201 184 181 151 247 117 154 172 182 143 146 132 129 144 162 217 147 160 169 195 175 175 176 171 167 196 220 216 244 275 255 180 141 238 10 285 323 303
227 222 216 213 209 203 202 193 175 180 130 74 69 146 150 133 158 140 143 109 188 162 187 177 176 194 209 178 174 170 167 184 200 205 211 262 179 123 203 261 307 304 306 307
222 216 213 214 215 209 196 109 116 97 107 115 138 102 13 358 143 127 177 146 147 150 163 179 165 180 179 153 201 186 200 212 176 198 205 238 187 212 213 194 253 237 268 312
233 229 221 219 215 204 175 140 143 101 125 78 151 167 169 137 139 135 135 170 158 169 121 135 165 190 178 169 211 181 230 178 225 172 229 235 210 222 250 201 209 172 241 293
230 228 223 218 174 161 154 146 160 91 87 116 176 151 168 165 149 163 85 122 108 106 102 148 149 197 206 193 191 200 180 154 220 246 258 246 249 248 248 181 166 187 227 299
224 215 193 155 150 144 115 112 150 135 132 129 123 106 155 158 168 151 130 141 148 163 164 156 178 174 160 177 166 197 177 197 197 228 228 230 238 171 162 178 198 196 228 280
210 174 155 146 143 134 116 117 240 161 134 114 142 74 145 159 167 152 153 163 145 128 115 158 194 199 184 186 213 211 226 232 236 243 227 215 119 155 165 180 170 167 179 233
132 134 139 143 145 140 108 171 154 158 120 109 112 137 155 135 135 142 153 163 165 131 149 196 184 198 200 198 207 231 227 225 230 237 183 230 180 200 169 155 148 137 164 188
124 132 136 134 119 85 70 108 142 119 90 107 123 107 169 179 136 133 142 148 147 168 146 145 178 139 213 242 221 236 239 208 220 214 202 220 111 127 141 144 145 164 172 174
150 143 142 132 98 119 131 149 125 54 102 132 140 153 176 164 112 124 129 132 164 116 176 178 159 176 220 219 216 231 225 199 210 153 148 150 175 172 167 165 171 178 178 182
160 158 130 171 170 131 118 125 135 152 145 99 129 129 141 155 122 95 115 134 134 167 195 131 224 239 245 235 235 237 195 197 139 124 214 193 205 189 181 188 174 171 168 162
140 136 134 127 156 102 136 148 167 143 172 168 144 146 132 206 130 121 109 142 152 182 186 179 227 255 231 236 236 231 200 186 195 204 212 189 176 176 171 164 163 160 161 160
131 110 104 142 161 158 155 156 161 173 196 144 138 140 118 135 119 109 163 139 163 209 123 171 242 234 239 223 216 220 192 190 195 191 164 148 142 142 141 142 147 147 133 137
105 127 156 160 186 169 174 167 166 167 156 152 144 128 121 120 108 111 160 167 179 119 163 224 230 249 237 211 215 187 153 144 128 128 116 117 111 100 110 126 118 128 129 133
159 161 150 209 174 185 183 163 137 146 140 149 147 120 129 132 144 133 151 100 137 182 219 224 223 233 230 189 186 138 183 162 144 139 133 130 128 118 115 120 135 139 144 151
170 165 182 183 133 75 120 119 105 137 148 144 120 77 108 137 140 156 108 161 200 211 217 217 220 225 166 186 182 173 150 151 145 140 138 135 131 133 126 131 138 131 135 149
200 167 118 113 92 97 147 114 113 153 146 120 93 128 160 163 159 154 186 168 208 211 212 209 158 167 180 183 145 140 138 142 137 142 140 137 141 146 142 137 143 145 149 151
164 140 118 112 99 133 136 130 157 155 149 155 138 154 183 123 179 179 176 206 206 174 177 176 145 155 147 136 116 127 131 135 138 135 141 138 128 124 132 148 165 157 158 153